Fort Bragg, NC

11:06 PM EDT on September 19, 2017 (GMT -0400)
Simmons Army Air Field

Weather History for KFBG - January, 2013

Change the Weather History Date:

Tuesday, January 15, 2013

  Actual Average Record
Temperature  
Mean Temperature 56 °F -  
Max Temperature 65 °F 50 °F 66 °F (2001)
Min Temperature 48 °F 31 °F 21 °F (2000)
Degree Days  
Heating Degree Days 8    
Growing Degree Days 6 (Base 50)    
Moisture  
Dew Point 50 °F    
Average Humidity 95    
Maximum Humidity 100    
Minimum Humidity 81    
Precipitation  
Precipitation 0.00 in - - ()
Sea Level Pressure  
Sea Level Pressure 30.13 in    
Wind  
Wind Speed 6 mph (NE)    
Max Wind Speed 10 mph    
Max Gust Speed -    
Visibility 6 miles    
Events      
Averages and records for this station are not official NWS values.
T = Trace of Precipitation, MM = Missing Value Source: NWS Daily Summary

Daily Weather History Graph

Daily Weather History Graph

Search for Another Location

Airport or City:

Trip Planner

Search our weather history database for the weather conditions in past years. The results will help you decide how hot, cold, wet, or windy it might be!

Date:

Astronomy

Jan. 15, 2013 Rise Set
Actual Time 7:23 AM EST 5:27 PM EST
Civil Twilight 6:55 AM EST 5:54 PM EST
Nautical Twilight 6:24 AM EST 6:26 PM EST
Astronomical Twilight 5:54 AM EST 6:56 PM EST
Moon 9:39 AM EST (1/15) 10:02 PM EST (1/15)
Length of Visible Light 10h 58m
Length of Day
10h 03m
Waxing Crescent, 19% of the Moon is Illuminated
Jan 15
Waxing Crescent
Jan 18
First Quarter
Jan 26
Full
Feb 3
Last Quarter
Feb 10
New

Hourly Weather History & Observations

Time (EST) Temp. Dew Point Humidity Pressure Visibility Wind Dir Wind Speed Gust Speed Precip Events Conditions
12:55 AM 65.8 °F 59.7 °F 81% 30.14 in 10.0 mi SW 5.8 mph - N/A   Clear
1:55 AM 65.1 °F 59.5 °F 82% 30.13 in 10.0 mi SSW 3.5 mph - N/A   Clear
2:55 AM 64.0 °F 59.5 °F 85% 30.12 in 10.0 mi South 3.5 mph - N/A   Mostly Cloudy
3:55 AM 63.7 °F 59.7 °F 87% 30.13 in 10.0 mi North 8.1 mph - N/A   Scattered Clouds
4:09 AM 64.4 °F 59.0 °F 83% 30.12 in 10.0 mi Calm Calm - N/A   Mostly Cloudy
4:41 AM 59.0 °F 55.4 °F 88% 30.12 in 10.0 mi NNE 10.4 mph - N/A   Scattered Clouds
4:55 AM 58.1 °F 55.0 °F 90% 30.12 in 10.0 mi Variable 4.6 mph - N/A   Scattered Clouds
5:11 AM 55.4 °F 53.6 °F 94% 30.12 in 10.0 mi NNE 9.2 mph - N/A   Mostly Cloudy
5:19 AM 55.4 °F 53.6 °F 94% 30.13 in 10.0 mi North 8.1 mph - N/A   Mostly Cloudy
5:55 AM 53.4 °F 51.4 °F 93% 30.13 in 10.0 mi NNE 6.9 mph - N/A   Overcast
6:00 AM 53.6 °F 51.8 °F 94% 30.14 in 10.0 mi NNE 6.9 mph - N/A   Overcast
6:36 AM 51.8 °F 51.8 °F 100% 30.13 in 10.0 mi NE 4.6 mph - N/A   Overcast
6:55 AM 52.2 °F 51.1 °F 96% 30.13 in 10.0 mi ENE 6.9 mph - N/A   Overcast
7:55 AM 52.3 °F 51.8 °F 98% 30.15 in 10.0 mi ENE 9.2 mph - N/A   Overcast
8:47 AM 50.0 °F 50.0 °F 100% 30.19 in 10.0 mi NE 6.9 mph - N/A   Overcast
8:55 AM 50.9 °F 49.8 °F 96% 30.19 in 10.0 mi NE 4.6 mph - N/A   Overcast
9:55 AM 51.4 °F 48.9 °F 91% 30.20 in 10.0 mi NNE 5.8 mph - N/A   Overcast
10:55 AM 52.0 °F 48.7 °F 89% 30.20 in 10.0 mi NNE 5.8 mph - N/A   Overcast
11:55 AM 51.8 °F 48.6 °F 89% 30.19 in 10.0 mi NNE 5.8 mph - N/A   Overcast
12:03 PM 51.8 °F 48.2 °F 88% 30.18 in 10.0 mi NNE 6.9 mph - N/A   Overcast
12:25 PM 51.8 °F 48.2 °F 88% 30.16 in 10.0 mi NNE 8.1 mph - N/A   Overcast
12:30 PM 51.8 °F 48.2 °F 88% 30.16 in 10.0 mi NNE 6.9 mph - N/A   Overcast
12:35 PM 51.8 °F 48.2 °F 88% 30.16 in 10.0 mi NNE 5.8 mph - N/A   Overcast
12:55 PM 52.3 °F 48.9 °F 88% 30.16 in 10.0 mi NE 6.9 mph - N/A   Overcast
1:01 PM 51.8 °F 48.2 °F 88% 30.16 in 10.0 mi NE 5.8 mph - N/A   Overcast
1:34 PM 51.8 °F 48.2 °F 88% 30.15 in 10.0 mi NNE 6.9 mph - N/A   Overcast
1:55 PM 51.6 °F 48.6 °F 89% 30.14 in 10.0 mi NNE 6.9 mph - N/A   Overcast
2:03 PM 51.8 °F 48.2 °F 88% 30.14 in 10.0 mi NE 10.4 mph - N/A   Overcast
2:12 PM 51.8 °F 48.2 °F 88% 30.14 in 9.0 mi ENE 6.9 mph - N/A   Overcast
2:19 PM 51.8 °F 50.0 °F 94% 30.14 in 9.0 mi NNE 5.8 mph - N/A   Overcast
2:23 PM 51.8 °F 48.2 °F 88% 30.14 in 10.0 mi NNE 5.8 mph - N/A   Overcast
2:41 PM 51.8 °F 50.0 °F 94% 30.14 in 10.0 mi NNE 6.9 mph - N/A   Overcast
2:55 PM 51.1 °F 49.1 °F 93% 30.14 in 10.0 mi NNE 4.6 mph - N/A   Overcast
2:59 PM 51.8 °F 50.0 °F 94% 30.14 in 10.0 mi NE 6.9 mph - N/A   Overcast
3:45 PM 51.8 °F 48.2 °F 88% 30.15 in 10.0 mi ENE 9.2 mph - N/A   Overcast
3:55 PM 51.1 °F 49.1 °F 93% 30.15 in 10.0 mi ENE 10.4 mph - N/A   Overcast
4:05 PM 50.0 °F 48.2 °F 94% 30.14 in 10.0 mi ENE 10.4 mph - N/A   Overcast
4:14 PM 50.0 °F 50.0 °F 100% 30.14 in 10.0 mi NNE 6.9 mph - N/A   Overcast
4:33 PM 50.0 °F 50.0 °F 100% 30.14 in 10.0 mi NNE 6.9 mph - N/A   Overcast
4:55 PM 50.2 °F 49.1 °F 96% 30.14 in 8.0 mi NE 9.2 mph - N/A   Overcast
5:19 PM 50.0 °F 48.2 °F 94% 30.14 in 2.5 mi NE 8.1 mph - N/A   Overcast
5:36 PM 50.0 °F 48.2 °F 94% 30.14 in 3.0 mi NE 6.9 mph - N/A   Overcast
5:55 PM 49.1 °F 48.7 °F 99% 30.15 in 3.0 mi ENE 6.9 mph - N/A   Overcast
6:05 PM 48.2 °F 48.2 °F 100% 30.14 in 2.5 mi ENE 9.2 mph - N/A   Overcast
6:11 PM 48.2 °F 48.2 °F 100% 30.15 in 2.0 mi ENE 9.2 mph - N/A   Overcast
6:42 PM 48.2 °F 48.2 °F 100% 30.15 in 1.8 mi ENE 8.1 mph - N/A   Overcast
6:55 PM 48.6 °F 48.4 °F 99% 30.15 in 1.5 mi ENE 6.9 mph - N/A   Overcast
7:03 PM 48.2 °F 48.2 °F 100% 30.15 in 1.2 mi ENE 8.1 mph - N/A   Overcast
7:06 PM 48.2 °F 48.2 °F 100% 30.15 in 1.2 mi NE 8.1 mph - N/A   Overcast
7:13 PM 48.2 °F 48.2 °F 100% 30.15 in 1.0 mi NE 8.1 mph - N/A   Overcast
7:18 PM 48.2 °F 48.2 °F 100% 30.15 in 1.0 mi ENE 6.9 mph - N/A   Mist
7:47 PM 48.2 °F 48.2 °F 100% 30.14 in 1.0 mi East 6.9 mph - N/A   Overcast
7:55 PM 48.7 °F 48.6 °F 99% 30.14 in 0.8 mi ENE 6.9 mph - N/A   Overcast
7:59 PM 48.2 °F 48.2 °F 100% 30.14 in 0.8 mi ENE 5.8 mph - N/A   Mist
8:03 PM 48.2 °F 48.2 °F 100% 30.13 in 0.8 mi ENE 5.8 mph - N/A   Mist
8:27 PM 48.2 °F 48.2 °F 100% 30.12 in 1.0 mi ENE 5.8 mph - N/A   Mist
8:38 PM 48.2 °F 48.2 °F 100% 30.12 in 1.0 mi ENE 6.9 mph - N/A   Mist
8:55 PM 48.9 °F 48.6 °F 99% 30.12 in 1.0 mi ENE 8.1 mph - N/A   Mist
8:59 PM 48.2 °F 48.2 °F 100% 30.11 in 1.0 mi East 4.6 mph - N/A   Overcast
9:09 PM 48.2 °F 48.2 °F 100% 30.11 in 1.0 mi ENE 5.8 mph - N/A   Mist
9:19 PM 48.2 °F 48.2 °F 100% 30.11 in 0.8 mi ENE 4.6 mph - N/A   Mist
9:32 PM 50.0 °F 48.2 °F 94% 30.10 in 1.0 mi ENE 6.9 mph - N/A   Mist
9:55 PM 49.1 °F 48.9 °F 99% 30.09 in 1.0 mi ENE 5.8 mph - N/A   Mist
9:56 PM 50.0 °F 48.2 °F 94% 30.09 in 1.0 mi ENE 4.6 mph - N/A   Overcast
10:03 PM 50.0 °F 48.2 °F 94% 30.08 in 1.0 mi East 4.6 mph - N/A   Mist
10:15 PM 50.0 °F 50.0 °F 100% 30.08 in 1.0 mi ENE 4.6 mph - N/A   Mist
10:23 PM 50.0 °F 50.0 °F 100% 30.09 in 1.0 mi Calm Calm - N/A   Mist
10:31 PM 50.0 °F 50.0 °F 100% 30.09 in 0.8 mi Calm Calm - N/A   Mist
10:55 PM 49.6 °F 49.5 °F 99% 30.09 in 0.8 mi Variable 3.5 mph - N/A   Mist
11:01 PM 50.0 °F 50.0 °F 100% 30.09 in 1.0 mi North 4.6 mph - N/A   Mist
11:29 PM 50.0 °F 50.0 °F 100% 30.08 in 1.2 mi NNE 3.5 mph - N/A   Overcast
11:32 PM 50.0 °F 50.0 °F 100% 30.08 in 1.2 mi Calm Calm - N/A   Overcast
11:55 PM 49.6 °F 49.5 °F 99% 30.06 in 1.2 mi NE 4.6 mph - N/A   Overcast
11:58 PM 50.0 °F 50.0 °F 100% 30.06 in 1.0 mi East 4.6 mph - N/A   Mist